Le nostre stazioni meteo in Italia

Pubblicità
Il mio iltempo24.it
San Pietro Capofiume, Italia (16144): Temperatura & dewpoint: 20.08.2019 12:00:00 - 26.08.2019 12:00:00 (CEST)San Pietro Capofiume, Italia (16144): velocità del vento: 20.08.2019 12:00:00 - 26.08.2019 12:00:00 (CEST)San Pietro Capofiume, Italia (16144): direzione del vento: 20.08.2019 12:00:00 - 26.08.2019 12:00:00 (CEST)San Pietro Capofiume, Italia (16144): reduced air pressure: 20.08.2019 12:00:00 - 26.08.2019 12:00:00 (CEST)
Data & Tempo tt [°C] td [°C] ff [km/h] ff [kn] dd ppp [hPa]
26.08.2019 12:00:00 - - - - - -
26.08.2019 11:00:00 - - - - - -
26.08.2019 10:00:00 - - - - - -
26.08.2019 09:00:00 - - - - - -
26.08.2019 08:00:00 - - - - - -
26.08.2019 07:00:00 - - - - - -
26.08.2019 06:00:00 - - - - - -
26.08.2019 05:00:00 - - - - - -
26.08.2019 04:00:00 20,5 16,9 7 4 ONO 1017,8
26.08.2019 03:00:00 20,2 17,2 7 4 NO 1017,7
26.08.2019 02:00:00 20,6 17,4 5 3 ONO 1017,8
26.08.2019 01:00:00 20,5 17,7 4 2 NNO 1017,9
26.08.2019 00:00:00 20,9 17,9 5 3 NNO 1018,0
25.08.2019 23:00:00 - - - - - -
25.08.2019 22:00:00 - - - - - -
25.08.2019 21:00:00 - - - - - -
25.08.2019 20:00:00 - - - - - -
25.08.2019 19:00:00 - - - - - -
25.08.2019 18:00:00 - - - - - -
25.08.2019 17:00:00 31,2 16,4 5 3 ENE 1016,6
25.08.2019 16:00:00 31,8 16,5 6 3 NE 1016,6
25.08.2019 15:00:00 30,6 17,0 - - - 1016,9
25.08.2019 14:00:00 30,6 17,3 8 4 N 1017,5
25.08.2019 13:00:00 29,5 17,0 7 4 N 1018,1
25.08.2019 12:00:00 28,0 17,5 8 4 NO 1018,5
25.08.2019 11:00:00 25,9 18,1 9 5 NO 1019,0
25.08.2019 10:00:00 24,1 19,0 10 6 NO 1019,1
25.08.2019 09:00:00 23,3 18,8 11 6 NO 1018,9
25.08.2019 08:00:00 21,6 18,8 10 5 ONO 1018,4
25.08.2019 07:00:00 19,8 17,9 11 6 O 1018,1
25.08.2019 06:00:00 19,3 17,4 8 4 O 1018,3
25.08.2019 05:00:00 19,2 17,2 8 4 O 1018,1
25.08.2019 04:00:00 19,9 17,5 8 4 ONO 1018,1
25.08.2019 03:00:00 20,4 17,8 11 6 ONO 1018,4
25.08.2019 02:00:00 20,8 18,2 9 5 ONO 1018,4
25.08.2019 01:00:00 21,2 18,6 - - - 1018,6
25.08.2019 00:00:00 22,1 18,7 7 4 ONO 1018,5
24.08.2019 23:00:00 - - - - - -
24.08.2019 22:00:00 - - - - - -
24.08.2019 21:00:00 - - - - - -
24.08.2019 20:00:00 - - - - - -
24.08.2019 19:00:00 - - - - - -
24.08.2019 18:00:00 - - - - - -
24.08.2019 17:00:00 30,8 17,1 6 4 NNE 1017,0
24.08.2019 16:00:00 30,8 17,8 5 3 NNE 1017,2
24.08.2019 15:00:00 31,5 17,8 7 4 NNE 1017,6
24.08.2019 14:00:00 29,9 18,3 8 4 NNO 1018,4
24.08.2019 13:00:00 29,5 18,6 8 5 NO 1019,0
24.08.2019 12:00:00 28,5 19,7 13 7 NO 1019,5
24.08.2019 11:00:00 27,0 19,6 15 8 ONO 1019,9
24.08.2019 10:00:00 26,0 19,6 14 8 ONO 1020,0
24.08.2019 09:00:00 24,0 19,1 11 6 O 1020,1
24.08.2019 08:00:00 22,2 18,4 12 7 ONO 1020,1
24.08.2019 07:00:00 20,8 17,6 9 5 ONO 1019,9
24.08.2019 06:00:00 20,5 17,5 8 5 ONO 1020,0
24.08.2019 05:00:00 20,2 17,8 9 5 O 1019,9
24.08.2019 04:00:00 20,6 17,4 10 5 O 1020,0
24.08.2019 03:00:00 20,9 17,9 7 4 ONO 1020,1
24.08.2019 02:00:00 21,2 18,2 5 3 ONO 1020,1
24.08.2019 01:00:00 21,2 18,6 5 3 O 1020,6
24.08.2019 00:00:00 21,7 19,1 8 4 ONO 1020,6
23.08.2019 23:00:00 - - - - - -
23.08.2019 22:00:00 - - - - - -
23.08.2019 21:00:00 - - - - - -
23.08.2019 20:00:00 - - - - - -
23.08.2019 19:00:00 - - - - - -
23.08.2019 18:00:00 - - - - - -
23.08.2019 17:00:00 26,0 18,4 7 4 ENE 1020,5
23.08.2019 16:00:00 26,1 18,5 8 5 NNE 1020,5
23.08.2019 15:00:00 26,7 19,3 14 8 ENE 1021,2
23.08.2019 14:00:00 27,9 19,1 14 8 NE 1021,5
23.08.2019 13:00:00 27,0 18,8 3 1 NE 1021,7
23.08.2019 12:00:00 25,9 20,0 12 6 NO 1021,6
23.08.2019 11:00:00 24,0 20,1 11 6 NO 1022,2
23.08.2019 10:00:00 22,5 19,7 8 4 ONO 1022,6
23.08.2019 09:00:00 21,7 18,7 4 2 NNE 1022,6
23.08.2019 08:00:00 21,7 18,1 6 4 NNO 1022,0
23.08.2019 07:00:00 20,3 17,9 8 4 O 1021,8
23.08.2019 06:00:00 20,4 17,8 8 4 NO 1021,2
23.08.2019 05:00:00 20,1 17,9 4 2 NO 1020,9
23.08.2019 04:00:00 20,2 17,6 3 2 ONO 1021,0
23.08.2019 03:00:00 20,2 17,8 5 3 ONO 1020,5
23.08.2019 02:00:00 20,9 18,3 4 2 ONO 1020,7
23.08.2019 01:00:00 21,1 18,7 1 0 ONO 1021,1
23.08.2019 00:00:00 21,5 18,7 6 3 SSO 1020,8
22.08.2019 23:00:00 - - - - - -
22.08.2019 22:00:00 - - - - - -
22.08.2019 21:00:00 - - - - - -
22.08.2019 20:00:00 - - - - - -
22.08.2019 19:00:00 - - - - - -
22.08.2019 18:00:00 - - - - - -
22.08.2019 17:00:00 25,4 19,3 12 6 NE 1019,9
22.08.2019 16:00:00 26,0 19,4 11 6 ENE 1020,2
22.08.2019 15:00:00 23,7 20,6 6 3 ENE 1020,8
22.08.2019 14:00:00 25,4 19,3 6 4 NE 1021,4
22.08.2019 13:00:00 24,8 19,4 6 3 NNE 1021,7
22.08.2019 12:00:00 23,8 19,5 5 3 NNE 1021,8
22.08.2019 11:00:00 23,4 19,1 3 2 NNE 1021,9
22.08.2019 10:00:00 23,2 18,9 3 2 N 1021,5
22.08.2019 09:00:00 22,0 18,4 8 4 NE 1021,3
22.08.2019 08:00:00 20,6 18,2 9 5 NNE 1021,0
22.08.2019 07:00:00 19,5 17,8 11 6 NNE 1020,6
22.08.2019 06:00:00 21,8 16,7 10 6 NNE 1020,2
22.08.2019 05:00:00 22,5 17,0 8 4 NNE 1019,9
22.08.2019 04:00:00 23,1 17,8 7 4 NNE 1019,6
22.08.2019 03:00:00 23,6 17,6 9 5 NE 1019,6
22.08.2019 02:00:00 23,7 17,9 - - - 1019,8
22.08.2019 01:00:00 23,6 18,3 12 7 NE 1020,1
22.08.2019 00:00:00 23,5 18,4 13 7 NE 1020,1
21.08.2019 23:00:00 - - - - - -
21.08.2019 22:00:00 - - - - - -
21.08.2019 21:00:00 - - - - - -
21.08.2019 20:00:00 - - - - - -
21.08.2019 19:00:00 - - - - - -
21.08.2019 18:00:00 - - - - - -
21.08.2019 17:00:00 32,2 20,8 16 9 NE 1016,8
21.08.2019 16:00:00 32,6 20,8 8 5 NNE 1017,0
21.08.2019 15:00:00 32,3 19,9 8 5 E 1017,3
21.08.2019 14:00:00 32,1 21,0 10 5 N 1017,7
21.08.2019 13:00:00 29,7 21,1 5 3 NNO 1018,1
21.08.2019 12:00:00 28,7 21,5 10 5 NNO 1018,5
21.08.2019 11:00:00 27,6 21,9 8 4 N 1018,5
21.08.2019 10:00:00 26,7 20,8 10 5 ONO 1018,6
21.08.2019 09:00:00 24,2 19,7 11 6 ONO 1018,3
21.08.2019 08:00:00 23,0 18,5 14 7 ONO 1018,1
21.08.2019 07:00:00 22,0 18,8 12 7 O 1017,6
21.08.2019 06:00:00 21,8 19,2 9 5 O 1017,2
21.08.2019 05:00:00 21,9 20,0 9 5 O 1016,7
21.08.2019 04:00:00 21,0 19,1 6 3 ONO 1016,5
21.08.2019 03:00:00 22,4 20,5 2 1 ENE 1016,1
21.08.2019 02:00:00 22,5 20,4 7 4 N 1016,1
21.08.2019 01:00:00 23,2 20,5 6 3 ENE 1016,1
21.08.2019 00:00:00 22,7 20,0 6 4 NE 1016,4
20.08.2019 23:00:00 - - - - - -
20.08.2019 22:00:00 - - - - - -
20.08.2019 21:00:00 - - - - - -
20.08.2019 20:00:00 - - - - - -
20.08.2019 19:00:00 - - - - - -
20.08.2019 18:00:00 - - - - - -
20.08.2019 17:00:00 32,9 20,8 9 5 E 1015,8
20.08.2019 16:00:00 33,2 20,0 16 9 ENE 1015,9
20.08.2019 15:00:00 33,5 19,6 12 6 ENE 1016,2
20.08.2019 14:00:00 33,6 18,9 8 4 NNE 1016,7
20.08.2019 13:00:00 32,4 20,3 7 4 NE 1017,0
20.08.2019 12:00:00 30,9 20,5 4 2 N 1017,6

tt = Temperatura
td = dewpoint
ff = velocità del vento
dd = direzione del vento
ppp = reduced air pressure

Stazioni seguenti

WeatherPro
AMSI
MeteoEarth